Location: Helion Bumpstead
(52.0500°N, 0.4000°E)
Time: 22:43:09
(UTC+00:00)

Cosmos 1725 Rocket - Pass Details

Date: 23 February 2026
Orbit: 962 x 989 km, 82.9° (Epoch: 11 March)

Event Time Altitude Azimuth Distance (km) Brightness Sun altitude
Rises 05:43:52 0° 190° (S) 3,635 6.9 -12.0°
Reaches altitude 10° 05:46:21 10° 191° (S) 2,694 6.2 -11.6°
Maximum altitude 05:52:32 84° 280° (W) 978 4.0 -10.7°
Drops below altitude 10° 05:58:47 10° 9° (N) 2,727 6.4 -9.7°
Sets 06:01:19 0° 11° (N) 3,682 7.1 -9.3°
